Wind_Speed
33 34 34 33 33 32 32 31 30 29 29 30 30 28 29 29 25 24 25 25 24 21 19 23 26 23 22 21 20 18 15 14 12 10 8 7 5 3 1 1 2 4 5 6 8 9 10 11 12 13 14 16 17 18 20 21 23 25 27 29 31 32 35 36 40 45 47 45 45 46 47 48 49 50 52 54 55 56 56 57 57 57 57 56 56
33 34 34 34 33 32 31 31 29 29 30 31 30 29 28 27 24 25 27 27 25 22 22 26 26 24 23 22 20 18 16 14 12 10 9 7 5 3 2 2 3 4 5 6 7 8 10 11 12 13 14 16 18 19 21 22 24 26 28 30 32 33 34 36 38 43 47 48 46 46 47 48 49 50 51 52 54 56 58 58 58 58 57 57 57
33 34 34 34 32 31 30 29 29 30 30 30 31 30 28 27 25 26 27 27 25 23 25 28 26 24 24 22 20 19 16 14 13 11 10 7 5 4 3 3 3 4 4 6 7 8 10 11 12 14 15 17 19 20 22 23 25 27 29 31 32 33 34 35 37 40 45 48 47 46 47 48 49 49 50 51 53 55 57 58 58 58 57 56 57
30 31 32 31 30 28 28 27 28 29 29 30 31 29 27 29 28 26 28 28 24 25 28 28 26 25 24 23 21 19 16 15 13 12 10 8 6 5 4 3 3 3 4 5 7 8 10 12 13 14 16 18 20 21 23 25 26 28 30 32 33 34 35 35 36 38 41 45 46 46 46 48 49 49 50 52 53 54 56 57 58 59 58 58 58
26 28 28 27 26 26 26 26 26 27 27 28 29 29 28 30 28 26 27 26 24 27 30 29 27 26 24 23 21 19 17 15 14 12 10 8 6 5 4 3 3 3 4 6 7 9 11 12 14 15 17 19 20 22 24 26 27 29 31 33 34 35 35 36 36 37 38 42 44 45 46 47 49 49 49 51 53 55 56 58 58 59 60 61 59
24 24 24 24 24 24 23 24 25 27 27 28 29 29 29 29 29 28 27 25 26 30 30 29 27 26 25 23 20 19 18 16 15 12 10 9 7 6 5 4 3 4 5 6 8 9 11 13 15 16 18 20 21 23 25 26 28 30 32 33 34 35 35 35 35 35 37 39 42 44 45 46 48 49 49 49 51 52 54 57 60 60 61 62 61
22 22 22 22 22 23 23 23 25 26 26 27 28 27 29 30 31 29 27 26 28 31 30 29 28 27 25 23 21 20 18 16 15 13 11 9 8 6 5 4 3 4 5 6 8 10 12 14 15 17 19 21 22 24 26 28 29 31 32 34 34 35 35 35 34 35 36 38 40 42 44 45 46 48 49 48 50 50 48 51 59 62 60 60 61
21 21 21 21 21 23 25 25 25 25 26 27 28 29 31 31 30 28 26 27 30 31 30 29 29 28 26 23 22 20 19 17 15 13 11 10 8 7 5 4 3 4 5 7 9 11 13 15 16 18 20 22 23 25 27 29 31 32 33 33 34 34 34 35 35 35 36 37 39 41 43 44 44 46 48 49 51 51 48 48 55 60 59 59 59
20 21 22 22 22 23 23 24 25 27 28 29 30 31 30 29 27 27 27 30 31 30 30 29 29 28 26 24 22 21 19 17 15 13 11 10 9 7 5 4 3 4 5 7 10 12 14 15 17 19 21 22 24 26 28 30 31 32 33 33 33 34 34 34 34 34 35 35 37 38 41 42 42 44 47 48 48 49 50 50 54 57 54 55 58
20 22 23 24 25 25 24 24 25 26 28 30 30 29 28 27 28 28 30 31 32 31 30 30 29 27 25 24 23 22 20 18 15 13 12 10 9 7 5 4 3 4 6 8 11 13 15 16 18 20 22 23 25 27 28 30 31 32 32 32 32 32 33 33 32 33 33 34 35 36 38 40 40 40 43 46 45 46 48 49 50 52 49 49 55
20 22 24 24 26 26 27 28 29 30 31 31 30 29 28 28 29 30 32 33 33 32 32 31 29 26 25 24 23 22 20 18 16 14 13 11 9 7 5 4 3 4 7 9 11 14 16 17 19 21 22 24 25 27 28 29 30 30 30 30 30 30 30 31 31 31 31 33 33 33 35 38 39 38 39 42 44 45 46 44 43 45 43 42 47
19 22 24 26 27 28 29 30 31 32 32 30 29 28 28 30 31 32 34 34 34 34 32 31 29 27 25 24 23 22 20 18 16 15 13 11 9 7 5 3 3 5 7 9 12 14 16 18 20 21 23 24 26 27 28 28 29 29 29 29 29 28 28 28 29 29 30 31 32 31 32 34 36 36 36 39 41 43 43 42 41 43 44 42 43
19 22 24 26 27 28 28 29 30 30 29 28 28 29 30 31 33 34 35 34 34 34 33 31 29 27 26 26 24 22 20 19 17 15 13 11 9 7 5 3 4 6 8 10 12 15 17 19 20 22 23 25 25 26 27 28 28 28 28 28 28 27 27 27 27 27 28 29 31 31 29 29 32 34 34 34 36 38 38 39 42 45 46 44 42
20 22 24 25 26 27 27 28 28 28 28 28 29 30 31 33 34 35 35 35 35 34 33 31 29 28 27 26 25 23 21 19 17 15 13 11 9 7 5 4 5 6 9 11 13 16 18 20 21 23 24 24 25 26 27 27 28 28 27 27 27 27 27 27 27 26 27 27 28 30 28 26 28 31 32 31 31 32 33 36 39 42 42 41 39
22 23 24 25 26 26 26 27 27 28 29 29 30 31 33 34 35 35 35 35 35 34 33 31 30 29 28 27 25 23 21 19 17 15 13 11 9 7 5 4 5 7 10 12 14 17 19 21 22 23 24 24 25 26 27 27 27 27 27 27 27 27 27 27 27 26 27 26 25 26 26 26 27 28 29 29 30 30 31 33 34 35 38 41 38
24 24 25 26 27 27 27 27 28 29 29 30 31 33 34 35 35 36 36 36 36 34 33 31 30 29 29 27 25 24 22 19 17 15 13 11 9 7 5 5 6 8 11 13 15 17 20 21 23 23 23 24 25 25 27 27 27 27 27 27 27 27 26 27 27 26 26 25 24 24 25 26 26 26 26 27 28 30 31 32 32 33 36 41 40
25 25 27 28 28 28 28 28 28 29 30 31 33 34 35 36 36 37 37 38 37 35 33 31 30 29 28 27 26 24 21 19 17 15 13 10 9 7 6 5 6 9 11 14 16 18 20 22 23 23 23 24 25 25 26 27 27 27 28 27 27 27 27 27 27 26 25 24 24 24 25 26 26 25 25 25 25 27 29 31 33 32 34 37 40
25 26 28 29 29 29 29 29 29 30 31 32 33 35 36 37 37 38 38 38 37 35 33 32 30 29 28 27 25 24 21 19 17 15 12 11 9 7 6 5 7 9 11 14 17 19 21 22 22 23 23 24 25 25 26 26 27 27 27 27 27 27 27 28 28 27 26 25 25 25 26 27 26 25 24 24 24 25 26 28 30 30 31 32 35
24 25 26 28 29 30 30 30 30 31 31 33 34 35 36 37 38 39 39 38 36 35 33 32 31 30 29 27 26 24 22 20 17 15 12 11 9 7 5 5 7 9 11 14 18 20 21 22 22 22 23 24 24 25 25 26 26 26 26 27 27 27 27 27 28 28 28 27 27 27 28 28 27 25 24 24 23 24 23 24 25 26 28 29 29
20 22 24 27 29 30 31 31 31 31 32 33 35 36 37 38 39 40 39 38 36 35 33 32 31 30 30 29 28 25 23 20 18 15 13 11 9 7 7 8 8 9 11 16 20 21 21 22 22 22 22 22 23 24 24 25 25 25 25 26 27 27 27 27 27 28 28 28 27 28 28 28 27 25 24 23 23 23 21 21 22 22 24 26 25
17 19 22 24 27 29 30 31 31 32 33 34 36 37 38 39 40 40 39 38 37 35 33 32 32 31 31 30 28 26 24 21 18 16 13 11 9 9 9 10 10 9 13 18 21 21 21 21 21 21 21 21 22 23 24 23 23 23 24 25 25 26 27 27 27 27 28 28 28 28 28 27 26 24 23 23 23 23 22 21 21 21 20 23 25
15 17 19 21 23 26 28 30 31 32 33 34 36 37 38 39 39 39 39 38 37 35 34 33 33 32 32 31 29 27 24 22 19 16 14 11 10 10 11 12 12 12 15 20 21 22 22 22 21 21 21 21 22 22 22 22 22 22 23 23 24 25 26 26 27 27 28 28 28 28 28 27 26 24 24 23 24 24 24 23 23 21 19 19 21
12 14 16 17 19 22 24 27 29 30 32 33 35 37 38 39 40 40 39 38 38 37 36 35 34 34 34 32 31 28 25 22 20 17 14 11 11 12 14 16 16 15 17 21 22 23 22 21 21 21 21 21 21 21 21 21 21 22 23 23 24 24 25 25 26 27 27 27 27 27 27 26 26 25 24 24 25 25 25 25 23 22 19 17 16
10 11 13 15 16 18 20 23 26 28 30 33 35 37 38 39 40 41 40 39 39 38 37 36 36 36 35 34 32 29 26 23 21 17 13 12 12 15 19 21 18 17 19 22 23 23 22 21 21 21 21 20 20 20 20 21 21 22 22 23 24 24 24 25 25 25 26 25 25 26 26 25 24 24 23 23 24 26 26 24 22 20 18 17 16
8 9 11 13 14 15 18 20 23 26 29 32 34 37 39 40 41 41 41 41 40 39 38 38 37 37 36 35 33 30 27 25 22 17 14 13 15 19 24 23 20 19 21 23 24 23 21 20 21 21 21 19 18 18 19 20 20 21 22 22 23 23 24 24 24 24 24 24 24 24 24 23 22 21 21 22 23 25 26 24 21 18 15 13 13
8 9 11 11 12 14 16 18 21 24 27 31 34 36 38 40 41 42 42 42 41 40 39 38 38 38 37 35 33 30 28 26 23 18 15 15 18 24 27 25 22 21 23 24 23 22 20 20 20 21 21 19 17 17 18 19 19 20 21 22 22 22 22 22 22 23 23 23 23 23 22 21 19 19 19 20 22 24 25 24 22 19 14 10 9
8 9 10 10 11 12 14 16 19 22 25 29 33 36 38 39 41 42 42 42 41 40 40 39 39 39 38 36 34 31 30 29 25 19 17 18 23 29 29 25 23 24 25 24 22 21 20 20 20 21 20 18 16 16 17 18 19 19 20 21 21 21 21 21 21 22 22 22 22 21 20 19 18 17 17 18 20 22 23 22 21 19 15 12 10
7 8 8 9 10 11 12 14 16 19 23 26 30 34 37 39 41 42 41 41 41 41 41 41 41 40 39 38 36 34 33 32 26 20 20 23 29 32 30 26 26 26 26 24 22 20 20 20 20 21 20 17 15 16 16 16 17 18 19 19 20 19 19 19 19 19 19 19 19 18 17 16 16 16 15 16 19 21 20 20 19 17 15 13 11
7 8 9 9 9 10 11 13 14 17 20 23 27 31 35 38 40 41 41 41 41 41 41 40 40 39 39 38 36 36 35 32 25 23 25 29 34 35 30 28 28 27 26 23 21 21 20 20 20 21 19 16 14 14 15 15 16 17 18 18 18 18 18 18 18 17 18 18 17 17 16 15 15 16 14 14 17 19 19 18 17 15 13 12 12
6 8 9 8 9 9 10 11 13 15 17 20 24 28 32 36 39 40 41 41 41 41 41 40 38 37 37 36 35 35 34 31 27 27 31 35 38 36 31 29 29 28 25 23 22 21 20 20 20 20 18 16 14 14 15 15 15 16 17 17 17 17 17 18 18 17 17 17 16 16 16 15 15 16 14 14 16 17 16 16 16 14 13 12 11
8 9 9 9 9 9 9 10 12 14 16 19 22 25 29 33 37 40 41 42 42 42 41 40 39 37 36 35 35 34 35 34 32 33 36 39 39 35 31 30 29 27 25 24 22 21 20 19 19 19 17 16 15 15 15 15 15 16 16 16 16 17 17 17 17 16 16 16 15 15 15 15 15 15 14 13 15 15 14 14 13 13 13 12 11
9 10 10 11 11 11 11 11 12 13 15 18 21 24 28 32 35 39 41 42 42 42 41 41 39 38 37 36 36 36 37 38 37 37 38 38 36 32 30 30 29 27 25 24 23 21 19 19 19 19 17 16 16 16 16 16 16 16 15 15 15 16 16 16 15 15 16 15 14 14 14 15 15 14 13 12 13 14 14 12 11 11 11 10 10
9 10 11 11 11 12 12 12 13 14 15 17 19 22 26 29 33 36 39 41 43 43 43 42 41 39 39 39 39 40 41 41 40 39 37 35 32 31 31 30 29 27 26 25 22 20 19 19 19 19 17 16 16 16 16 16 16 15 15 14 14 15 15 15 14 15 15 15 14 14 14 14 14 13 12 11 11 13 14 13 11 10 10 9 8
9 10 11 11 12 12 13 13 13 14 15 16 18 21 24 27 30 34 38 41 43 44 44 44 43 42 41 41 42 43 43 44 43 40 36 33 32 32 31 31 30 28 26 25 22 20 19 19 19 18 18 16 16 17 16 16 15 14 14 14 14 14 14 13 13 13 13 13 13 13 13 13 14 12 11 10 10 11 13 13 11 10 9 8 8
9 9 10 11 12 12 13 13 14 14 15 16 18 19 22 24 28 32 36 40 43 44 44 44 44 44 44 44 44 45 45 45 44 40 37 35 34 33 33 33 31 28 26 24 21 20 20 20 19 19 18 17 17 17 16 16 15 14 13 13 13 13 13 12 12 12 12 12 12 12 12 13 13 13 11 10 9 10 11 12 12 11 9 8 8
10 11 11 11 12 12 13 13 14 14 15 16 17 19 21 23 27 30 34 37 41 44 45 45 45 45 45 45 45 45 46 46 44 41 39 37 36 35 35 34 31 28 26 24 22 21 20 20 19 19 19 19 18 18 17 16 15 13 13 12 12 12 12 11 10 11 11 11 11 11 12 12 12 12 12 11 11 11 11 11 12 11 10 9 8
11 12 12 12 13 13 14 15 15 16 16 17 18 19 21 23 26 29 32 35 39 42 44 45 45 45 46 46 45 45 45 44 43 42 40 38 37 36 35 33 31 29 27 24 23 21 20 20 20 20 20 19 19 18 17 16 14 13 12 12 11 11 11 11 10 11 11 11 11 11 11 11 12 12 12 11 11 11 11 11 12 12 11 10 9
12 12 13 13 14 14 15 16 16 17 18 19 20 21 22 24 25 28 30 33 37 40 43 45 45 46 46 46 45 44 44 43 43 42 41 39 39 38 36 34 31 29 27 25 23 22 21 21 21 21 20 20 19 18 17 16 14 13 12 11 11 11 11 10 10 11 11 11 11 11 11 11 11 12 12 12 12 12 12 12 12 12 12 11 11
13 13 13 14 14 15 15 16 17 18 19 20 21 22 24 25 26 27 29 32 34 38 41 43 45 46 46 46 45 45 44 44 44 43 41 40 39 37 35 33 32 30 27 25 24 23 23 22 21 20 20 20 19 18 17 16 14 13 11 10 10 10 10 9 10 11 12 12 12 12 11 11 11 12 12 12 12 12 13 13 13 13 13 13 12
12 13 14 14 14 15 16 16 17 18 19 20 21 22 24 25 26 27 29 30 33 36 39 42 44 45 45 46 46 45 45 45 45 43 41 39 37 35 34 34 32 30 28 26 25 24 24 23 21 21 21 21 20 18 17 16 14 13 11 9 9 9 9 8 9 10 11 12 12 11 11 11 11 12 12 12 12 12 13 13 14 14 13 13 14
12 13 13 14 14 15 15 16 17 17 18 19 20 21 23 24 26 27 29 30 32 34 36 39 41 43 44 45 45 45 45 45 44 42 40 38 36 34 34 33 32 30 28 27 26 25 24 23 23 23 22 21 20 19 17 16 14 12 11 9 9 8 8 8 8 9 10 11 11 11 11 11 11 12 12 12 12 12 12 13 14 14 14 14 14
13 13 14 14 15 15 16 16 17 17 18 19 20 20 21 23 24 26 28 30 32 33 35 37 38 39 41 42 43 44 44 44 44 42 41 39 37 34 33 33 32 31 29 28 26 25 25 24 24 24 23 22 20 19 18 16 14 12 11 11 10 9 8 8 9 9 10 10 11 11 11 11 11 12 12 13 13 13 13 13 13 13 14 14 14
15 16 16 17 17 17 17 18 18 19 19 20 20 21 22 22 24 25 27 28 31 32 34 36 37 37 38 39 40 42 44 44 44 43 41 40 38 36 35 35 34 31 29 28 27 26 26 25 25 24 23 22 21 19 18 17 15 13 12 12 10 10 9 9 10 10 10 10 11 11 11 11 11 11 12 13 13 13 13 13 13 13 13 14 14
18 18 18 19 19 19 20 20 20 21 21 21 22 22 23 24 24 25 26 27 29 30 32 34 35 36 37 37 38 40 43 43 43 42 41 40 39 37 37 36 34 32 30 29 28 28 27 26 25 24 23 22 21 20 19 17 16 14 13 13 11 11 10 10 10 11 11 11 11 11 12 12 12 12 12 13 13 14 14 14 14 14 14 13 14
20 20 20 21 21 21 22 22 22 23 23 23 24 24 24 25 26 26 27 28 28 29 30 31 33 34 36 36 37 39 40 41 42 41 40 39 39 38 37 36 34 32 31 30 30 29 27 26 25 24 23 23 22 21 19 18 16 15 14 13 12 11 11 11 11 11 11 11 11 11 12 12 13 13 13 13 14 14 14 14 15 15 15 14 14
21 22 22 23 23 23 23 24 24 25 25 25 25 26 26 26 27 27 28 29 29 30 31 31 31 33 34 35 36 37 38 39 40 39 39 38 37 37 37 35 34 33 32 32 31 30 28 27 26 25 24 24 23 21 20 18 17 16 15 13 12 11 11 11 11 11 10 10 11 11 11 12 13 14 14 14 14 14 14 14 15 15 16 16 15
23 24 24 25 25 26 26 26 27 27 27 27 28 28 28 28 28 29 29 30 30 31 32 32 32 33 33 34 34 35 36 37 38 38 37 37 37 36 36 35 35 34 34 33 32 31 30 28 27 25 25 24 24 22 20 19 17 16 15 13 12 11 11 11 11 10 10 11 11 11 11 12 12 13 14 15 15 15 15 14 15 15 15 16 16
25 26 27 28 28 29 29 29 30 30 30 30 31 31 31 30 30 30 30 31 31 31 32 32 33 33 33 34 33 33 34 35 36 37 37 36 36 36 36 36 36 36 35 34 33 32 31 29 28 26 26 25 24 22 21 19 18 17 15 13 12 11 11 11 10 10 10 11 12 12 12 12 12 13 14 15 15 16 16 16 15 15 15 15 16
28 29 30 30 31 31 32 32 32 33 33 33 33 33 33 33 33 33 32 32 32 32 32 32 32 33 33 33 32 32 33 34 36 36 37 36 35 35 36 37 37 37 36 35 34 33 32 30 28 27 26 25 24 23 21 20 18 17 15 14 13 12 12 11 10 10 11 12 12 13 13 13 13 14 15 15 16 16 17 17 17 16 16 16 15
31 31 32 33 33 33 34 34 35 35 35 35 35 35 35 35 35 35 35 34 34 34 33 33 32 32 32 32 31 31 32 33 34 34 35 35 35 35 37 38 38 37 36 35 34 33 32 31 29 27 26 25 24 23 21 20 19 17 15 15 14 14 13 12 11 11 12 12 13 14 14 14 15 15 16 16 17 17 17 17 17 17 17 17 16
33 33 34 34 35 35 35 36 36 36 36 36 36 36 36 36 36 36 36 36 36 35 34 33 32 31 31 30 30 30 31 31 32 32 32 33 35 36 37 38 37 37 36 36 35 34 33 32 29 27 25 25 24 23 22 21 19 17 16 16 16 15 14 13 12 13 13 13 14 15 15 15 16 16 17 17 18 19 19 19 18 18 18 18 18
Wind_Direction
240 240 240 240 240 239 238 237 234 231 230 231 234 231 228 230 229 224 227 232 231 232 225 208 198 193 190 190 190 189 189 186 183 181 180 181 180 182 211 295 321 323 326 329 333 335 335 334 332 328 327 325 322 321 320 320 321 322 323 324 326 326 326 325 323 321 322 326 329 329 329 329 330 331 330 330 330 331 331 333 334 334 335 335 335
244 243 242 241 240 238 238 236 232 228 227 228 231 229 228 230 224 220 227 232 233 231 218 203 196 192 191 192 190 190 190 187 185 184 182 184 189 199 232 273 299 311 321 328 331 331 331 329 328 326 324 322 321 319 319 319 321 323 323 325 326 327 327 326 325 323 322 324 328 329 329 330 331 331 332 332 331 331 332 333 333 334 335 335 335
243 242 241 240 239 237 235 232 227 224 224 226 227 225 227 227 223 222 226 232 232 222 208 200 195 191 192 194 193 192 190 187 186 186 184 187 197 212 236 261 286 308 320 326 326 325 326 326 325 325 322 321 320 319 319 321 322 324 325 326 327 327 327 327 326 325 324 325 327 329 329 330 332 333 334 333 333 333 333 333 334 334 335 335 336
238 237 236 235 233 231 228 224 220 219 220 222 223 222 221 220 222 225 225 227 225 211 201 197 194 192 193 195 195 193 191 188 187 188 189 192 202 217 235 253 277 305 314 317 320 321 324 325 324 324 323 322 321 320 321 322 324 326 327 327 328 328 328 328 327 326 325 325 327 329 331 331 332 334 335 333 333 334 334 334 334 335 336 337 337
233 231 229 227 224 222 220 215 214 217 218 218 219 220 218 217 224 229 224 221 217 206 199 195 193 194 197 197 196 193 190 189 189 191 194 198 207 218 228 244 264 291 303 310 319 321 323 324 324 324 323 321 320 321 322 324 327 328 328 328 328 328 328 328 327 327 326 326 328 330 332 332 333 335 336 336 335 335 335 335 335 337 338 338 337
228 225 223 221 217 215 215 210 209 214 216 215 217 218 216 218 226 228 223 220 213 204 198 195 194 196 198 198 196 194 192 191 192 195 198 202 210 216 222 237 255 279 301 313 319 322 323 324 324 323 321 320 321 322 324 327 328 329 329 329 328 328 328 328 327 328 328 329 330 332 333 334 334 335 337 338 337 337 337 336 337 338 338 336 335
226 221 219 219 213 208 210 210 210 212 213 214 216 217 217 220 225 225 223 218 209 201 198 196 195 198 199 198 195 194 194 194 195 197 200 205 211 214 220 233 254 284 305 316 319 321 323 323 322 322 321 322 323 325 327 329 330 331 330 329 329 329 328 328 329 330 331 331 333 334 334 335 336 335 336 338 338 339 339 336 335 337 336 335 336
228 223 219 219 215 209 208 209 210 212 212 213 213 215 219 222 224 224 220 211 204 201 200 199 198 199 199 198 196 195 196 198 199 200 202 207 210 212 221 233 258 292 307 316 319 321 322 322 322 323 323 324 326 328 330 331 331 331 331 330 330 329 329 330 332 333 334 334 335 336 335 335 336 336 337 340 340 340 339 335 332 333 334 335 336
228 225 219 216 215 215 215 213 211 211 212 214 216 219 222 224 223 220 212 204 200 200 201 202 204 203 200 198 197 197 198 200 200 201 204 208 208 211 221 233 264 295 308 316 319 320 321 322 324 324 325 327 329 330 331 332 332 332 331 331 330 329 331 333 334 335 335 335 335 335 335 335 337 338 339 342 340 336 335 334 332 332 333 333 335
225 224 220 216 214 215 217 217 216 216 216 219 223 225 225 223 217 210 203 201 200 200 202 204 206 206 204 201 199 200 201 201 200 203 206 207 208 212 219 234 267 298 312 318 319 320 322 324 325 325 327 329 330 331 332 332 332 331 331 331 330 331 333 334 336 337 336 335 335 335 335 335 338 341 340 339 336 332 332 333 332 331 331 330 332
225 223 221 219 218 216 215 216 218 219 221 224 225 224 220 214 208 203 201 201 202 201 203 206 206 205 206 205 204 203 203 201 201 205 206 206 207 210 217 236 272 302 314 317 319 322 324 325 326 327 328 330 330 331 332 332 331 330 330 330 331 334 335 335 337 337 336 335 334 335 336 337 340 341 337 334 332 331 332 332 329 327 327 328 328
228 225 221 219 220 220 220 220 221 222 223 223 221 216 210 206 203 202 202 203 203 203 205 207 207 206 205 206 207 206 204 203 204 206 206 205 207 211 219 238 280 303 312 317 321 324 324 325 326 327 329 329 329 330 330 330 330 330 330 330 333 336 336 336 337 337 337 335 333 337 340 339 339 337 334 331 330 330 331 330 327 325 324 325 324
232 227 224 222 222 222 223 223 222 221 218 216 212 208 206 205 205 205 205 205 206 206 207 208 208 208 207 207 208 206 205 205 206 206 206 206 209 214 223 247 282 303 313 320 324 325 325 326 327 328 328 328 329 329 329 329 330 329 330 332 334 337 337 337 339 338 336 335 335 341 344 338 333 332 332 331 329 328 327 326 326 326 324 324 325
234 230 227 225 223 222 222 221 218 215 212 210 208 207 207 207 206 207 207 208 208 209 210 210 209 209 210 210 209 207 207 207 207 206 206 208 211 216 227 256 287 306 317 323 326 326 326 327 327 327 327 327 328 328 328 329 330 330 332 334 336 338 338 339 340 338 338 340 341 343 343 335 329 330 333 331 326 324 322 320 323 326 326 327 329
234 232 228 224 222 220 219 217 215 213 212 211 210 210 210 209 209 209 210 211 212 213 213 213 212 211 211 211 210 209 209 209 207 207 207 210 214 219 234 263 292 311 319 324 327 327 327 326 324 324 326 327 328 328 328 330 331 332 334 336 337 340 341 340 339 339 342 345 344 342 339 335 332 332 332 330 326 323 320 320 325 328 329 331 333
232 231 227 224 221 219 218 217 216 215 215 214 214 213 212 211 212 212 212 212 214 215 215 215 214 214 213 212 211 211 211 210 208 208 209 212 216 225 243 270 297 315 322 325 327 327 325 323 321 322 324 326 327 328 329 331 332 334 335 337 340 342 341 338 339 342 345 345 344 341 338 337 336 334 332 330 328 326 325 329 334 334 333 334 336
233 231 228 225 223 222 222 221 221 220 219 219 218 217 216 215 214 215 215 215 215 215 216 216 216 216 215 214 213 213 213 212 210 209 210 214 220 230 250 279 307 319 323 325 325 323 320 318 319 321 323 325 327 328 330 331 333 334 335 338 341 341 338 339 341 344 345 344 342 340 339 339 338 334 333 333 331 332 334 337 339 336 333 335 336
236 234 232 229 228 228 229 228 227 226 225 224 223 221 219 218 217 217 217 217 218 218 217 217 216 216 216 216 217 216 215 214 213 211 211 216 225 237 259 291 311 316 319 322 320 317 315 315 317 319 321 324 327 329 330 331 332 334 336 339 341 339 338 341 343 343 344 342 341 340 340 341 339 336 337 338 337 340 342 340 339 336 333 333 333
240 238 237 235 234 234 234 234 233 231 230 228 226 224 222 220 219 219 218 219 220 220 219 218 217 216 215 216 218 218 217 216 215 212 212 220 229 239 260 283 295 305 314 316 313 311 312 313 315 317 320 324 327 328 330 330 331 334 337 339 339 338 339 342 342 342 342 341 341 342 343 342 340 339 340 342 345 348 348 341 338 336 331 330 332
243 242 242 239 238 238 237 237 236 235 233 230 228 225 223 221 220 219 218 219 220 220 220 219 219 218 218 218 219 219 218 218 216 214 214 221 231 242 259 273 283 300 310 309 307 307 309 311 313 315 318 323 326 327 328 329 332 336 339 338 338 338 340 341 341 340 339 339 342 343 343 342 342 340 341 346 351 354 351 344 339 336 331 329 331
242 242 243 242 241 241 240 238 238 235 233 230 227 225 223 222 222 221 220 220 220 220 221 221 220 221 221 222 222 221 220 218 216 215 217 222 235 251 266 278 287 298 302 301 302 305 307 309 310 312 317 322 324 325 326 330 334 337 338 337 337 338 339 339 339 339 338 338 341 343 343 342 341 340 342 348 354 355 352 346 342 339 334 329 329
239 241 243 244 244 244 243 241 239 236 234 231 228 226 224 223 223 223 223 223 222 222 222 222 222 222 222 223 224 222 221 219 216 218 223 231 248 264 278 291 294 291 292 296 299 302 304 306 308 311 316 321 322 323 327 332 336 337 337 336 336 337 337 337 337 337 336 338 341 342 343 342 341 341 344 348 353 354 351 347 344 341 336 331 331
243 245 246 247 248 248 247 246 243 240 237 233 230 227 226 225 224 224 224 224 224 224 223 223 223 223 224 224 224 222 221 218 216 220 230 246 265 280 296 303 294 282 286 294 296 298 300 304 307 311 316 319 321 324 329 334 337 337 336 336 336 335 334 334 334 335 336 338 340 342 343 343 342 342 344 347 351 352 350 347 346 342 336 333 337
247 249 250 250 250 250 249 248 246 244 240 235 231 228 227 226 225 225 224 225 225 226 225 225 225 225 225 225 224 222 220 217 217 224 238 260 280 298 308 303 286 275 284 291 292 293 297 302 307 310 313 317 321 326 331 334 337 337 336 334 333 332 332 332 333 333 335 337 340 342 344 345 343 341 343 347 348 347 347 347 348 347 339 333 340
250 250 252 253 251 251 250 248 247 245 241 238 234 231 229 227 226 226 226 226 226 227 227 228 228 228 228 228 226 224 221 218 219 229 249 272 292 306 307 294 275 273 283 286 286 289 295 301 306 307 310 315 321 328 333 335 336 335 333 331 330 330 330 330 331 332 335 338 340 342 345 345 343 342 343 347 346 343 344 347 351 353 347 335 340
248 248 252 255 254 253 252 250 248 246 242 239 237 234 232 231 229 228 227 227 228 228 229 230 230 230 230 229 227 226 223 220 223 236 260 279 294 303 299 284 269 273 280 279 281 287 293 299 303 304 307 313 322 329 333 334 333 331 329 327 327 327 327 328 330 332 335 338 339 343 345 343 342 343 344 344 344 343 345 349 353 356 357 350 352
250 250 251 255 257 257 257 255 252 249 246 242 238 235 233 232 231 231 230 229 230 230 231 232 232 231 232 230 228 226 223 222 226 243 265 278 289 295 291 276 266 271 274 274 278 284 290 296 298 300 304 311 322 329 331 330 328 326 325 323 323 324 325 327 331 334 335 337 338 341 343 341 340 344 345 344 345 346 349 353 354 356 359 1 6
252 253 252 255 256 257 259 258 256 254 251 247 243 239 236 234 233 233 233 234 235 235 235 235 235 235 235 232 229 227 224 223 230 251 266 274 284 289 284 269 264 268 269 269 274 279 285 291 293 296 303 312 321 325 324 324 323 321 320 320 320 323 325 328 331 332 333 334 336 338 340 339 340 345 348 348 348 349 352 356 358 357 358 360 7
252 255 255 257 258 259 260 259 257 256 254 251 248 244 241 238 237 235 235 236 237 239 241 242 242 242 240 237 234 232 229 228 237 255 266 273 281 284 277 264 261 263 264 266 271 275 281 286 290 295 302 309 313 315 315 315 316 316 317 318 320 323 326 328 330 331 331 333 335 336 337 337 339 345 350 353 353 351 352 356 359 359 358 359 4
264 262 259 259 260 260 261 260 258 257 255 252 250 247 244 241 239 237 236 236 237 239 241 243 244 245 244 242 240 238 236 236 243 256 266 273 279 278 269 258 257 259 261 263 267 272 278 283 289 295 299 301 303 305 306 309 312 313 315 317 321 324 327 329 330 332 333 334 334 336 336 334 336 344 351 355 356 354 352 354 356 356 356 357 2
283 276 268 262 258 256 259 259 258 257 255 253 251 249 246 243 240 239 237 237 237 238 239 240 241 242 242 242 241 239 238 238 243 253 262 269 272 269 259 253 254 256 258 260 264 270 276 282 287 292 294 294 297 300 304 308 311 312 314 318 322 326 328 329 330 332 334 334 332 333 334 331 333 343 351 353 355 354 352 353 354 352 352 354 1
279 275 269 262 256 253 253 253 254 255 255 254 252 250 248 245 243 240 239 237 237 238 238 239 239 239 239 239 238 237 238 239 244 251 258 263 265 260 252 250 253 255 255 258 262 268 274 279 284 287 288 290 294 299 303 308 309 310 313 318 322 325 327 328 330 333 334 333 331 331 331 329 332 343 349 348 350 350 350 351 353 353 353 357 5
278 275 271 265 260 255 252 250 250 251 253 254 254 253 251 249 246 244 242 240 239 238 238 239 239 239 238 238 238 238 240 242 245 250 256 260 258 252 248 250 252 252 253 257 261 265 271 276 279 282 284 288 294 298 301 304 305 306 311 316 320 324 324 326 331 335 334 332 329 328 328 326 329 338 343 342 342 344 345 347 351 354 354 357 7
277 274 272 270 265 261 258 254 252 252 252 252 253 254 253 253 251 248 245 243 242 241 241 240 240 240 239 240 240 241 243 244 246 251 256 257 253 248 248 249 250 250 252 255 258 263 269 273 275 279 284 288 292 294 296 297 299 302 308 313 317 320 322 325 329 331 329 328 326 325 324 324 324 327 332 333 334 334 337 340 344 348 351 352 358
278 273 270 267 264 261 258 255 253 252 252 253 254 255 256 255 254 251 249 247 246 246 246 245 244 244 243 243 243 244 245 246 249 253 256 254 249 247 248 249 249 250 251 253 257 262 267 271 274 280 284 287 288 289 290 291 294 297 301 306 311 316 318 320 323 322 323 324 324 322 322 321 320 319 321 323 323 320 323 330 336 339 341 342 345
290 288 285 279 274 269 264 260 257 254 253 253 254 255 255 255 254 254 252 251 250 249 248 248 248 248 248 247 247 247 248 249 251 253 254 252 248 248 249 250 250 250 250 252 256 261 265 269 274 279 283 284 284 285 285 286 288 290 294 299 305 310 312 313 313 314 317 321 323 322 320 318 316 315 314 317 319 316 314 319 325 329 331 330 330
295 294 293 289 286 282 278 273 269 264 260 258 255 255 255 255 255 255 254 253 253 251 250 250 249 249 250 250 250 251 251 251 252 252 251 249 247 248 250 250 250 250 250 252 256 260 263 268 273 277 279 279 280 280 280 281 282 284 287 294 301 306 307 307 309 311 314 317 319 318 317 315 314 313 312 312 312 312 311 310 312 315 317 318 318
290 290 289 287 287 284 282 279 275 270 267 262 258 256 256 255 255 256 255 255 255 255 254 253 252 252 253 254 254 254 253 252 251 251 250 249 250 250 251 251 250 250 251 253 255 259 263 268 271 272 273 274 275 275 275 276 277 277 281 289 298 301 301 304 309 313 313 313 314 315 315 316 315 314 314 312 309 308 308 306 305 305 305 305 306
289 290 290 290 289 288 286 284 281 277 273 269 263 259 257 256 256 257 257 258 258 257 256 256 255 255 255 256 256 255 254 254 254 255 254 254 255 254 253 252 251 250 250 252 255 260 264 266 266 267 269 271 271 270 270 271 271 271 274 283 290 293 295 299 306 309 309 309 311 313 313 315 316 315 316 315 311 308 306 304 303 302 300 299 297
292 293 293 293 294 294 293 293 292 289 286 282 277 272 268 264 262 260 260 260 260 259 259 259 258 258 258 257 257 257 258 259 260 260 260 260 259 257 254 252 251 250 249 252 257 260 262 262 262 263 266 266 264 263 264 265 265 265 268 275 280 283 288 294 299 301 302 304 307 311 312 314 315 315 315 316 315 313 311 308 305 303 301 299 294
302 301 300 300 300 299 299 299 298 297 294 292 289 286 283 278 273 269 266 264 263 263 263 262 262 262 261 260 260 261 261 262 262 262 262 262 260 258 255 253 251 249 249 254 258 259 259 259 260 261 262 260 258 258 258 258 258 260 263 268 273 276 282 289 293 297 299 300 303 308 312 314 316 315 315 315 316 315 315 313 309 306 303 300 296
311 310 309 309 307 306 306 304 301 299 297 296 294 292 290 286 282 277 273 270 267 266 265 265 265 265 264 263 262 262 261 261 261 261 261 260 259 256 253 251 249 248 250 254 256 256 256 256 257 257 256 254 253 254 254 253 254 256 260 265 269 272 276 284 290 293 297 300 304 308 311 313 316 317 317 317 316 315 315 315 314 312 308 304 300
311 311 310 309 308 308 307 305 303 302 301 299 297 294 291 289 286 283 280 276 273 270 268 267 266 265 265 264 263 261 260 260 259 259 259 259 257 254 252 250 248 248 250 253 254 253 253 253 252 252 250 249 249 250 251 251 251 253 257 262 267 270 273 280 285 289 293 297 302 308 311 313 315 316 316 317 317 316 315 314 315 316 315 312 308
308 308 307 306 305 304 303 302 301 300 298 296 295 293 292 290 288 286 284 282 279 276 274 272 269 267 266 264 262 260 259 259 258 258 258 258 256 254 251 249 247 247 250 253 253 252 250 248 247 245 244 244 246 247 248 249 251 253 257 260 264 268 272 277 282 286 290 294 299 304 308 311 315 316 317 316 316 316 316 315 315 316 317 317 317
307 306 305 305 304 303 302 301 299 297 296 294 292 291 289 287 286 284 283 282 281 279 277 275 272 269 267 264 262 260 260 260 259 259 258 258 256 254 252 249 247 248 252 252 251 250 247 243 241 240 241 243 245 245 245 247 250 253 256 260 263 267 272 278 282 285 289 294 298 302 305 307 310 312 313 314 315 314 315 315 316 316 316 316 318
306 305 305 304 303 302 302 300 298 297 295 294 292 291 288 286 285 283 282 281 280 279 277 275 272 270 268 265 263 261 260 260 260 260 259 258 256 254 252 249 247 250 252 251 249 247 243 239 237 238 239 242 243 242 243 246 249 252 256 259 262 266 272 278 282 287 293 298 301 305 307 309 310 310 310 311 312 313 313 313 313 314 314 314 314
303 303 302 302 302 301 300 299 298 297 296 294 293 292 290 288 287 285 283 282 281 279 278 276 274 272 270 266 263 261 260 260 261 261 260 258 256 253 250 248 248 250 251 249 247 244 241 238 238 237 237 239 240 241 242 244 247 251 254 258 261 267 272 276 281 288 296 301 305 309 311 312 313 312 311 311 310 309 309 309 308 308 309 309 309
299 299 298 298 298 298 298 297 297 296 295 294 293 292 290 289 288 286 285 284 282 280 279 278 276 273 271 268 264 261 259 258 259 259 258 256 254 251 248 247 249 250 250 247 245 242 241 239 238 236 234 234 236 238 241 243 246 250 253 257 262 267 271 275 282 291 297 302 306 310 312 314 315 314 314 313 312 309 307 306 305 304 303 303 303
297 296 296 296 296 296 295 295 295 294 294 293 292 291 289 288 286 285 284 282 281 280 278 277 275 273 271 268 264 259 256 256 256 256 256 254 252 250 248 248 249 250 249 246 243 242 242 241 238 234 232 231 232 235 238 242 245 248 252 257 263 267 271 277 285 292 298 303 307 310 312 314 315 314 314 314 313 312 309 306 303 301 299 298 297
296 296 295 295 295 295 294 294 293 293 292 292 291 290 289 287 286 284 282 281 279 278 277 275 274 272 269 266 262 258 254 253 254 255 255 254 251 249 248 248 250 250 248 245 242 242 243 242 238 233 230 230 231 233 236 239 242 245 250 256 262 267 272 279 287 292 298 303 307 309 312 314 315 313 313 313 312 312 311 308 304 300 296 294 292
295 295 295 294 294 294 294 293 293 292 292 291 290 289 288 287 286 284 282 280 279 278 277 275 273 270 266 263 259 255 252 251 252 252 252 251 249 248 248 249 250 249 246 244 243 243 243 241 237 233 231 230 230 231 233 235 238 242 247 253 259 265 272 279 286 291 296 301 304 307 310 313 313 311 312 312 311 310 310 308 306 302 297 293 290
Height
1512 1514 1516 1517 1519 1520 1522 1524 1526 1528 1530 1532 1534 1536 1538 1539 1541 1543 1544 1546 1547 1549 1550 1552 1554 1555 1556 1558 1560 1561 1563 1564 1565 1565 1566 1567 1568 1569 1569 1569 1570 1570 1570 1570 1569 1569 1568 1568 1568 1567 1566 1566 1565 1564 1563 1562 1561 1559 1558 1556 1555 1553 1550 1547 1542 1536 1533 1534 1533 1529 1525 1522 1519 1516 1511 1507 1503 1499 1496 1493 1488 1482 1477 1473 1468
1508 1510 1512 1513 1515 1517 1519 1520 1523 1525 1527 1529 1531 1533 1535 1536 1538 1540 1542 1543 1545 1546 1547 1549 1551 1553 1555 1556 1558 1560 1561 1562 1563 1564 1565 1566 1566 1567 1567 1568 1568 1568 1568 1568 1568 1567 1567 1567 1566 1565 1565 1564 1563 1562 1561 1560 1559 1557 1556 1554 1553 1551 1548 1545 1541 1535 1530 1529 1529 1526 1522 1519 1516 1512 1508 1503 1499 1495 1491 1487 1484 1479 1474 1470 1464
1504 1506 1507 1509 1511 1513 1515 1517 1519 1521 1523 1525 1527 1530 1532 1533 1535 1537 1539 1540 1542 1543 1545 1547 1549 1551 1553 1555 1556 1558 1559 1560 1561 1562 1563 1564 1565 1565 1566 1566 1567 1567 1567 1566 1566 1566 1565 1565 1564 1564 1563 1562 1561 1560 1559 1558 1557 1555 1554 1552 1550 1548 1546 1543 1540 1535 1529 1526 1525 1523 1519 1516 1512 1508 1504 1500 1496 1492 1487 1483 1480 1476 1472 1467 1462
1500 1501 1503 1505 1507 1509 1511 1513 1515 1517 1520 1522 1524 1526 1529 1530 1532 1534 1536 1538 1539 1541 1543 1545 1547 1549 1551 1553 1554 1556 1557 1558 1559 1560 1561 1562 1563 1563 1564 1564 1565 1565 1565 1565 1565 1564 1564 1563 1562 1561 1561 1560 1559 1558 1557 1555 1554 1553 1551 1550 1548 1545 1543 1541 1537 1534 1529 1524 1522 1520 1516 1512 1509 1505 1501 1496 1493 1489 1485 1480 1475 1470 1466 1462 1459
1496 1497 1499 1501 1503 1505 1507 1509 1512 1514 1517 1519 1521 1524 1526 1528 1529 1531 1533 1535 1536 1538 1540 1542 1545 1547 1549 1551 1553 1554 1555 1557 1558 1559 1560 1560 1561 1562 1562 1563 1563 1563 1563 1563 1563 1562 1562 1561 1560 1559 1558 1557 1556 1555 1554 1553 1552 1550 1549 1547 1545 1543 1541 1538 1535 1532 1528 1523 1520 1517 1513 1509 1506 1503 1498 1493 1488 1485 1481 1476 1471 1466 1460 1457 1455
1493 1495 1497 1498 1500 1502 1504 1506 1509 1512 1514 1517 1519 1521 1524 1526 1527 1529 1530 1532 1534 1536 1538 1541 1543 1545 1548 1549 1551 1552 1553 1555 1556 1557 1558 1558 1559 1560 1560 1561 1561 1561 1561 1561 1561 1560 1559 1559 1558 1557 1556 1555 1554 1553 1552 1550 1549 1548 1546 1544 1542 1540 1538 1536 1533 1530 1526 1522 1518 1514 1510 1506 1502 1499 1495 1491 1485 1480 1475 1470 1466 1463 1458 1453 1450
1491 1493 1495 1496 1498 1500 1502 1505 1507 1510 1512 1515 1517 1519 1521 1523 1524 1526 1528 1530 1532 1534 1536 1539 1541 1544 1546 1547 1549 1550 1552 1553 1554 1555 1556 1556 1557 1558 1559 1559 1559 1559 1559 1559 1559 1558 1557 1556 1555 1554 1553 1552 1551 1550 1548 1547 1546 1545 1543 1541 1539 1537 1534 1532 1529 1526 1523 1519 1515 1511 1507 1504 1500 1496 1492 1488 1484 1478 1474 1467 1460 1458 1457 1451 1446
1490 1491 1493 1494 1496 1498 1501 1503 1506 1508 1510 1513 1515 1517 1518 1520 1521 1523 1526 1528 1530 1533 1535 1537 1539 1541 1543 1545 1547 1548 1550 1551 1552 1553 1554 1555 1556 1556 1557 1557 1557 1557 1557 1557 1557 1556 1555 1554 1553 1552 1551 1550 1548 1546 1545 1544 1542 1541 1540 1538 1536 1534 1531 1528 1525 1522 1519 1515 1512 1508 1504 1501 1498 1494 1489 1484 1479 1474 1472 1468 1460 1455 1453 1449 1445
1488 1490 1491 1493 1495 1497 1500 1502 1504 1506 1508 1510 1512 1514 1515 1517 1519 1521 1523 1526 1529 1531 1534 1536 1538 1539 1541 1543 1545 1546 1548 1549 1550 1551 1552 1553 1554 1554 1555 1555 1555 1555 1555 1555 1554 1554 1553 1552 1550 1550 1548 1547 1545 1544 1542 1541 1539 1538 1537 1535 1533 1530 1528 1525 1522 1519 1515 1512 1509 1506 1502 1499 1495 1491 1486 1481 1477 1472 1470 1467 1461 1455 1452 1447 1444
1487 1488 1490 1492 1494 1497 1499 1500 1502 1504 1506 1508 1509 1511 1513 1515 1517 1519 1521 1524 1527 1529 1532 1534 1536 1538 1539 1541 1542 1544 1546 1547 1548 1549 1550 1551 1552 1552 1553 1553 1553 1553 1553 1553 1552 1552 1551 1550 1548 1547 1546 1544 1543 1541 1540 1538 1537 1536 1534 1532 1530 1527 1524 1522 1519 1516 1513 1509 1507 1504 1501 1497 1494 1490 1484 1480 1477 1474 1470 1466 1460 1455 1452 1447 1442
1485 1486 1488 1490 1492 1494 1496 1499 1501 1502 1504 1506 1507 1509 1511 1512 1515 1517 1520 1522 1524 1527 1529 1532 1534 1536 1537 1539 1541 1542 1544 1545 1546 1547 1548 1549 1550 1550 1551 1551 1551 1551 1551 1551 1550 1550 1549 1548 1547 1545 1543 1542 1540 1539 1537 1536 1535 1534 1532 1530 1528 1525 1522 1519 1516 1514 1511 1508 1505 1503 1500 1495 1491 1488 1485 1480 1476 1473 1469 1466 1461 1456 1453 1450 1444
1483 1484 1486 1488 1490 1492 1494 1496 1498 1499 1501 1503 1505 1507 1509 1511 1513 1515 1517 1520 1522 1525 1527 1530 1532 1534 1535 1537 1539 1540 1542 1543 1544 1545 1546 1547 1548 1548 1549 1549 1549 1549 1549 1549 1548 1548 1547 1546 1545 1543 1541 1540 1538 1537 1536 1535 1533 1532 1530 1528 1525 1523 1520 1517 1514 1512 1509 1506 1503 1501 1498 1494 1489 1487 1484 1480 1475 1471 1468 1465 1462 1457 1453 1451 1448
1481 1482 1484 1486 1488 1490 1492 1493 1495 1497 1499 1501 1503 1505 1507 1509 1511 1513 1515 1518 1520 1523 1526 1528 1530 1531 1533 1535 1537 1538 1540 1541 1542 1543 1544 1545 1546 1546 1547 1547 1547 1547 1547 1546 1546 1546 1545 1544 1543 1541 1539 1538 1536 1535 1534 1532 1531 1529 1527 1525 1523 1520 1518 1515 1513 1510 1508 1505 1502 1499 1496 1493 1489 1487 1484 1480 1475 1471 1468 1464 1460 1456 1451 1450 1449
1479 1480 1482 1484 1486 1487 1489 1491 1493 1495 1497 1499 1501 1503 1505 1507 1509 1512 1514 1516 1519 1521 1523 1525 1527 1529 1531 1533 1535 1536 1538 1539 1540 1541 1542 1543 1544 1544 1545 1545 1545 1545 1544 1544 1544 1543 1543 1541 1540 1539 1537 1536 1534 1532 1531 1530 1528 1526 1524 1522 1520 1518 1515 1512 1510 1508 1506 1503 1499 1496 1494 1493 1489 1485 1482 1479 1476 1472 1468 1464 1460 1455 1450 1448 1447
1477 1478 1480 1482 1483 1485 1487 1489 1491 1493 1495 1497 1499 1501 1503 1505 1507 1510 1512 1514 1517 1519 1521 1523 1525 1527 1529 1531 1532 1534 1535 1537 1538 1539 1540 1541 1541 1542 1542 1542 1542 1542 1542 1542 1542 1541 1540 1539 1538 1537 1535 1534 1532 1530 1528 1527 1525 1523 1521 1519 1517 1514 1512 1509 1507 1505 1502 1499 1497 1494 1492 1491 1487 1484 1480 1477 1474 1471 1467 1464 1460 1455 1449 1445 1443
1474 1476 1478 1480 1482 1484 1485 1487 1489 1491 1493 1495 1497 1499 1501 1503 1505 1508 1510 1512 1515 1517 1519 1521 1523 1525 1527 1528 1530 1532 1533 1535 1536 1537 1538 1538 1539 1540 1540 1540 1540 1540 1540 1540 1539 1538 1537 1536 1535 1534 1533 1531 1529 1527 1525 1523 1521 1519 1517 1516 1513 1511 1509 1507 1505 1502 1499 1497 1495 1493 1491 1488 1485 1482 1479 1476 1472 1468 1465 1461 1458 1453 1447 1441 1438
1472 1474 1476 1477 1479 1482 1484 1485 1487 1489 1491 1493 1494 1496 1498 1501 1503 1505 1507 1509 1512 1514 1516 1519 1521 1523 1524 1526 1528 1529 1531 1532 1533 1534 1535 1536 1537 1537 1537 1537 1537 1537 1537 1537 1537 1536 1535 1534 1533 1532 1530 1528 1526 1524 1522 1520 1518 1517 1514 1512 1510 1508 1506 1504 1501 1499 1496 1494 1493 1490 1488 1485 1482 1479 1477 1474 1470 1466 1462 1458 1454 1450 1446 1441 1435
1470 1472 1473 1476 1478 1480 1482 1484 1486 1487 1489 1490 1492 1494 1496 1498 1501 1503 1505 1507 1510 1512 1514 1516 1519 1520 1522 1524 1526 1527 1529 1530 1531 1532 1533 1534 1534 1534 1535 1535 1535 1535 1535 1534 1534 1533 1533 1532 1530 1529 1527 1526 1523 1521 1519 1517 1516 1514 1512 1509 1507 1505 1503 1500 1497 1495 1493 1492 1490 1488 1485 1482 1479 1476 1474 1471 1468 1465 1460 1456 1453 1449 1445 1441 1436
1467 1470 1472 1474 1477 1478 1480 1482 1483 1485 1487 1489 1490 1492 1494 1496 1498 1501 1503 1506 1508 1510 1512 1514 1516 1518 1520 1522 1523 1525 1526 1527 1528 1530 1530 1531 1531 1531 1532 1532 1532 1532 1531 1531 1531 1531 1530 1529 1528 1527 1525 1523 1521 1518 1517 1515 1513 1511 1509 1507 1505 1503 1500 1497 1494 1492 1490 1489 1487 1485 1482 1479 1477 1473 1471 1468 1466 1463 1459 1456 1452 1449 1444 1441 1438
1465 1468 1470 1472 1474 1476 1477 1479 1481 1483 1485 1486 1488 1490 1492 1494 1496 1498 1501 1503 1505 1507 1509 1511 1514 1515 1517 1519 1520 1522 1523 1524 1526 1527 1527 1528 1528 1528 1529 1529 1529 1528 1528 1528 1528 1528 1527 1526 1525 1524 1522 1520 1518 1516 1514 1513 1511 1509 1506 1504 1502 1500 1497 1494 1492 1490 1488 1486 1484 1482 1479 1477 1474 1471 1469 1466 1463 1461 1458 1455 1452 1449 1444 1440 1438
1463 1465 1467 1469 1471 1473 1474 1476 1478 1480 1482 1483 1485 1488 1490 1492 1494 1496 1499 1501 1503 1505 1507 1509 1511 1513 1514 1516 1517 1519 1520 1521 1523 1524 1524 1525 1525 1525 1526 1525 1525 1525 1525 1526 1526 1525 1524 1524 1523 1521 1519 1517 1515 1514 1512 1510 1508 1506 1504 1502 1500 1497 1494 1492 1490 1488 1486 1484 1481 1479 1477 1474 1472 1469 1467 1464 1461 1459 1456 1453 1450 1447 1444 1440 1436
1461 1462 1464 1466 1467 1469 1471 1473 1475 1477 1479 1481 1483 1485 1488 1490 1492 1495 1497 1499 1500 1502 1504 1506 1508 1509 1511 1513 1514 1516 1517 1518 1520 1520 1521 1522 1522 1522 1522 1522 1521 1522 1522 1522 1522 1522 1521 1521 1520 1518 1516 1514 1512 1511 1509 1507 1505 1503 1502 1499 1497 1495 1492 1490 1488 1486 1484 1481 1479 1477 1474 1471 1469 1466 1464 1461 1459 1457 1454 1451 1448 1446 1442 1439 1436
1458 1460 1461 1463 1464 1466 1468 1470 1472 1474 1476 1478 1481 1483 1485 1488 1490 1492 1494 1495 1497 1499 1500 1502 1504 1505 1507 1509 1510 1512 1514 1515 1516 1517 1518 1518 1519 1519 1518 1518 1518 1519 1519 1519 1519 1518 1518 1517 1516 1514 1512 1511 1509 1508 1506 1504 1502 1500 1498 1496 1494 1492 1490 1488 1486 1483 1481 1479 1476 1474 1472 1469 1466 1463 1461 1459 1456 1455 1453 1450 1447 1444 1441 1438 1436
1456 1458 1459 1460 1462 1464 1465 1467 1469 1471 1473 1475 1477 1480 1482 1484 1486 1488 1490 1492 1493 1495 1497 1498 1500 1501 1503 1505 1507 1509 1511 1512 1513 1514 1514 1515 1515 1514 1514 1514 1515 1516 1516 1515 1515 1515 1514 1513 1512 1511 1509 1508 1506 1504 1502 1500 1499 1497 1495 1493 1492 1490 1487 1485 1483 1481 1479 1476 1474 1472 1469 1466 1463 1461 1459 1456 1454 1453 1451 1449 1446 1443 1440 1436 1434
1455 1456 1457 1458 1460 1461 1463 1464 1466 1468 1470 1472 1474 1476 1478 1480 1482 1484 1486 1488 1489 1491 1493 1495 1496 1498 1500 1502 1504 1506 1507 1509 1509 1510 1511 1511 1510 1510 1511 1511 1512 1512 1512 1512 1512 1511 1510 1509 1508 1507 1506 1504 1502 1500 1498 1497 1495 1494 1492 1491 1489 1487 1485 1483 1481 1479 1477 1474 1472 1470 1467 1465 1462 1460 1457 1455 1453 1451 1449 1447 1445 1442 1440 1437 1434
1454 1455 1456 1457 1458 1459 1460 1462 1463 1465 1467 1469 1471 1473 1475 1477 1479 1481 1482 1484 1486 1488 1490 1492 1494 1495 1497 1499 1501 1503 1504 1505 1505 1506 1506 1506 1506 1507 1508 1508 1508 1508 1508 1508 1508 1507 1506 1505 1504 1504 1503 1501 1498 1496 1495 1494 1492 1491 1490 1488 1487 1485 1483 1481 1479 1477 1474 1472 1470 1468 1465 1463 1461 1459 1456 1454 1452 1450 1447 1444 1442 1441 1439 1437 1434
1453 1454 1454 1455 1456 1457 1458 1460 1461 1463 1464 1466 1468 1470 1472 1474 1476 1478 1479 1482 1483 1485 1487 1488 1490 1492 1493 1495 1497 1499 1500 1500 1501 1502 1502 1502 1503 1504 1504 1504 1504 1505 1505 1505 1504 1503 1502 1502 1501 1500 1499 1497 1494 1493 1492 1491 1490 1489 1488 1486 1485 1483 1481 1479 1476 1474 1472 1470 1468 1466 1464 1462 1460 1458 1455 1453 1451 1449 1446 1443 1441 1439 1438 1436 1434
1451 1452 1453 1453 1454 1455 1456 1458 1459 1460 1462 1464 1465 1467 1469 1471 1473 1475 1477 1479 1480 1482 1483 1484 1486 1488 1490 1492 1493 1494 1495 1495 1497 1498 1498 1498 1499 1500 1500 1500 1500 1501 1501 1501 1501 1500 1499 1498 1498 1497 1495 1493 1491 1490 1489 1488 1487 1486 1485 1484 1482 1481 1479 1476 1474 1472 1470 1468 1466 1464 1463 1461 1458 1456 1454 1452 1449 1447 1445 1443 1441 1438 1437 1435 1433
1449 1450 1451 1452 1453 1454 1455 1456 1457 1458 1460 1461 1463 1464 1466 1468 1470 1472 1475 1476 1478 1479 1480 1482 1484 1486 1487 1488 1489 1490 1490 1492 1493 1494 1494 1495 1495 1496 1496 1496 1496 1497 1497 1497 1497 1496 1495 1495 1494 1493 1491 1490 1488 1487 1486 1485 1484 1483 1482 1481 1480 1478 1476 1474 1472 1470 1468 1466 1464 1462 1461 1459 1456 1454 1452 1450 1448 1446 1444 1442 1440 1438 1437 1435 1432
1447 1448 1449 1450 1451 1452 1453 1454 1455 1456 1457 1458 1460 1461 1463 1465 1467 1469 1471 1473 1474 1476 1477 1479 1482 1483 1484 1485 1486 1487 1487 1489 1490 1490 1490 1491 1491 1490 1491 1492 1492 1493 1493 1493 1493 1492 1492 1491 1490 1489 1488 1487 1486 1485 1484 1482 1481 1480 1479 1478 1477 1475 1474 1472 1469 1468 1466 1464 1462 1460 1458 1456 1454 1452 1450 1449 1447 1445 1443 1441 1439 1438 1436 1434 1432
1445 1446 1447 1448 1449 1449 1450 1451 1452 1454 1455 1456 1457 1458 1460 1462 1463 1465 1467 1469 1470 1472 1474 1476 1478 1480 1481 1481 1482 1483 1484 1485 1485 1485 1485 1485 1485 1485 1486 1487 1487 1489 1489 1489 1489 1488 1488 1487 1486 1485 1485 1484 1483 1482 1481 1479 1478 1477 1476 1475 1473 1472 1470 1469 1467 1465 1463 1461 1460 1458 1456 1454 1452 1450 1449 1447 1446 1444 1443 1441 1439 1437 1436 1434 1432
1443 1444 1445 1446 1446 1447 1448 1449 1450 1451 1452 1453 1454 1455 1457 1458 1460 1461 1463 1465 1466 1468 1470 1472 1473 1475 1476 1477 1478 1478 1479 1479 1479 1479 1479 1480 1480 1481 1481 1482 1483 1484 1484 1484 1484 1484 1483 1483 1483 1482 1481 1480 1480 1479 1477 1476 1475 1474 1473 1471 1470 1468 1467 1466 1464 1462 1460 1459 1457 1455 1454 1452 1450 1448 1447 1445 1444 1443 1442 1440 1439 1437 1435 1434 1432
1442 1443 1443 1444 1444 1445 1445 1446 1447 1448 1449 1450 1451 1452 1453 1455 1456 1458 1460 1461 1463 1464 1465 1467 1469 1470 1471 1472 1473 1473 1474 1474 1474 1474 1474 1475 1475 1476 1477 1477 1478 1479 1479 1479 1479 1479 1479 1479 1479 1478 1477 1476 1476 1475 1474 1472 1472 1471 1469 1468 1467 1465 1464 1463 1462 1460 1458 1456 1455 1453 1452 1450 1448 1447 1446 1444 1443 1442 1441 1439 1438 1436 1435 1433 1431
1440 1441 1441 1442 1442 1443 1443 1444 1444 1445 1446 1447 1448 1449 1450 1451 1453 1455 1456 1457 1458 1459 1461 1463 1464 1465 1466 1467 1467 1468 1468 1468 1468 1469 1469 1470 1471 1471 1472 1472 1473 1474 1474 1474 1474 1475 1475 1475 1474 1474 1474 1473 1472 1471 1470 1469 1468 1467 1466 1465 1464 1463 1462 1460 1459 1458 1456 1455 1453 1451 1450 1448 1446 1445 1444 1443 1441 1440 1439 1438 1437 1435 1434 1433 1431
1438 1439 1439 1440 1440 1440 1441 1441 1442 1442 1443 1444 1445 1446 1447 1448 1449 1450 1452 1453 1454 1455 1457 1458 1459 1460 1461 1462 1462 1463 1463 1463 1463 1464 1465 1466 1466 1467 1467 1467 1468 1469 1469 1469 1470 1470 1470 1470 1470 1470 1470 1469 1468 1468 1467 1466 1465 1464 1462 1461 1461 1460 1459 1458 1457 1456 1455 1453 1451 1449 1448 1446 1445 1444 1442 1441 1440 1439 1438 1437 1435 1434 1433 1431 1430
1437 1437 1437 1437 1437 1438 1438 1438 1439 1440 1440 1441 1442 1443 1444 1444 1445 1446 1447 1449 1450 1451 1452 1453 1455 1456 1456 1457 1458 1459 1459 1458 1459 1459 1460 1461 1461 1462 1462 1462 1464 1464 1465 1465 1465 1465 1466 1466 1466 1466 1466 1465 1465 1464 1463 1463 1462 1461 1459 1458 1457 1457 1456 1456 1455 1454 1452 1451 1449 1447 1446 1444 1443 1442 1441 1439 1438 1437 1436 1435 1434 1433 1431 1430 1429
1436 1435 1435 1435 1435 1435 1435 1436 1436 1436 1437 1438 1438 1439 1440 1440 1441 1442 1443 1444 1445 1446 1447 1448 1449 1450 1451 1452 1454 1454 1454 1454 1454 1454 1455 1456 1457 1457 1458 1458 1459 1460 1460 1461 1461 1461 1461 1461 1461 1461 1461 1461 1461 1461 1460 1460 1459 1458 1456 1455 1453 1453 1453 1453 1452 1451 1450 1448 1446 1445 1444 1442 1441 1440 1439 1437 1436 1435 1434 1433 1432 1431 1430 1429 1427
1434 1434 1433 1433 1433 1433 1433 1433 1434 1434 1434 1434 1435 1435 1436 1436 1437 1438 1438 1439 1440 1441 1442 1443 1444 1445 1446 1447 1449 1450 1449 1449 1449 1449 1450 1451 1452 1452 1453 1454 1454 1455 1456 1456 1456 1456 1457 1457 1457 1457 1457 1457 1457 1457 1457 1456 1456 1455 1453 1451 1450 1450 1450 1450 1449 1448 1447 1446 1444 1443 1441 1440 1439 1438 1436 1435 1434 1433 1432 1431 1430 1429 1428 1427 1426
1432 1432 1432 1432 1431 1431 1431 1431 1431 1431 1431 1431 1432 1432 1432 1432 1433 1433 1434 1435 1435 1436 1437 1437 1438 1439 1441 1442 1443 1444 1444 1443 1443 1444 1446 1446 1447 1449 1449 1449 1450 1451 1451 1451 1452 1452 1452 1452 1452 1452 1453 1453 1452 1453 1453 1453 1453 1452 1450 1448 1447 1447 1447 1447 1446 1445 1445 1444 1442 1440 1439 1438 1437 1435 1434 1433 1432 1431 1430 1429 1428 1427 1426 1425 1424
1431 1431 1430 1430 1429 1429 1429 1429 1429 1429 1428 1428 1428 1428 1428 1428 1429 1429 1429 1430 1430 1431 1431 1432 1432 1434 1435 1437 1437 1438 1438 1438 1438 1440 1441 1442 1443 1444 1444 1444 1445 1446 1446 1447 1447 1447 1447 1448 1448 1448 1448 1448 1448 1448 1449 1449 1449 1449 1448 1446 1444 1444 1444 1444 1443 1443 1442 1441 1440 1438 1437 1436 1434 1433 1432 1431 1430 1429 1428 1427 1426 1425 1424 1423 1422
1429 1428 1428 1427 1427 1427 1426 1427 1426 1426 1425 1425 1425 1425 1425 1425 1425 1425 1425 1425 1425 1426 1426 1426 1427 1429 1430 1431 1432 1433 1433 1433 1434 1435 1436 1437 1438 1439 1439 1440 1441 1441 1441 1442 1442 1442 1442 1443 1443 1443 1443 1444 1444 1444 1444 1445 1446 1446 1445 1443 1442 1442 1441 1441 1441 1440 1440 1439 1438 1436 1435 1433 1432 1431 1430 1429 1428 1427 1426 1425 1424 1423 1421 1421 1420
1426 1426 1425 1425 1424 1424 1424 1424 1423 1423 1423 1422 1422 1422 1422 1421 1421 1421 1421 1421 1421 1421 1421 1421 1422 1423 1424 1425 1427 1428 1428 1427 1428 1429 1430 1431 1432 1434 1434 1435 1436 1436 1437 1437 1437 1437 1437 1438 1438 1439 1439 1439 1440 1440 1440 1441 1442 1442 1441 1440 1440 1439 1439 1438 1438 1437 1437 1437 1435 1434 1432 1431 1429 1428 1428 1427 1425 1424 1423 1422 1421 1420 1419 1418 1418
1424 1424 1423 1423 1422 1422 1422 1421 1420 1420 1420 1419 1419 1418 1418 1417 1417 1417 1416 1416 1416 1416 1416 1416 1417 1418 1418 1420 1421 1421 1421 1421 1421 1422 1424 1425 1426 1428 1429 1430 1431 1432 1432 1432 1432 1433 1433 1433 1434 1434 1435 1435 1435 1436 1436 1437 1438 1438 1438 1437 1437 1436 1436 1435 1435 1435 1434 1434 1433 1431 1430 1429 1427 1426 1425 1424 1423 1422 1421 1420 1419 1418 1417 1416 1415
1422 1421 1421 1420 1420 1419 1419 1418 1418 1417 1416 1416 1416 1415 1414 1414 1413 1413 1412 1412 1412 1411 1411 1412 1412 1412 1413 1414 1414 1414 1414 1414 1415 1416 1418 1419 1420 1422 1424 1425 1426 1426 1427 1427 1427 1428 1428 1429 1429 1430 1430 1431 1431 1432 1433 1433 1433 1434 1434 1434 1433 1433 1433 1432 1432 1432 1432 1431 1430 1429 1428 1426 1425 1424 1423 1422 1421 1420 1419 1418 1417 1416 1415 1414 1413
1419 1419 1418 1417 1417 1416 1416 1415 1414 1413 1413 1412 1412 1411 1410 1410 1409 1408 1408 1407 1406 1406 1406 1406 1406 1406 1406 1407 1407 1407 1408 1408 1409 1411 1412 1413 1415 1417 1419 1420 1421 1421 1422 1422 1423 1423 1423 1424 1425 1426 1426 1427 1427 1428 1429 1429 1429 1430 1430 1430 1430 1430 1429 1429 1429 1429 1429 1428 1427 1426 1425 1424 1423 1421 1421 1420 1418 1417 1416 1415 1414 1413 1413 1412 1411
1416 1415 1415 1414 1413 1413 1412 1412 1411 1410 1409 1408 1407 1406 1406 1405 1404 1403 1403 1402 1401 1401 1401 1400 1400 1400 1400 1401 1401 1401 1402 1403 1404 1405 1406 1408 1410 1412 1413 1414 1415 1416 1416 1417 1417 1418 1419 1420 1421 1421 1422 1423 1423 1424 1425 1425 1425 1426 1426 1426 1427 1426 1426 1426 1426 1426 1425 1425 1424 1424 1423 1422 1420 1419 1418 1417 1416 1415 1414 1413 1412 1411 1410 1409 1408
1412 1412 1411 1410 1410 1409 1408 1407 1406 1405 1404 1403 1402 1401 1401 1400 1399 1398 1397 1397 1396 1396 1395 1395 1395 1394 1394 1394 1395 1395 1396 1397 1398 1399 1401 1403 1405 1407 1408 1409 1410 1411 1411 1412 1412 1413 1414 1415 1416 1417 1418 1419 1419 1420 1421 1421 1421 1422 1422 1423 1423 1423 1423 1423 1423 1422 1422 1421 1421 1420 1420 1419 1418 1416 1415 1414 1413 1412 1412 1411 1410 1409 1408 1407 1406
1408 1408 1407 1406 1405 1405 1404 1403 1402 1401 1400 1398 1397 1396 1395 1394 1394 1393 1392 1391 1391 1390 1390 1389 1389 1389 1388 1389 1389 1390 1391 1392 1392 1394 1395 1397 1399 1401 1403 1404 1405 1405 1406 1407 1408 1409 1410 1411 1412 1413 1414 1415 1415 1416 1416 1417 1417 1418 1418 1419 1419 1419 1420 1420 1419 1419 1418 1418 1417 1417 1416 1415 1415 1414 1412 1411 1410 1409 1409 1408 1407 1407 1406 1405 1404
1404 1403 1403 1402 1401 1400 1399 1398 1397 1396 1395 1394 1393 1391 1390 1389 1388 1387 1387 1386 1385 1384 1384 1384 1383 1383 1383 1383 1383 1384 1385 1385 1386 1388 1389 1392 1394 1396 1397 1398 1399 1399 1400 1402 1403 1404 1405 1406 1408 1409 1410 1411 1412 1412 1413 1413 1414 1414 1414 1414 1415 1416 1416 1416 1416 1415 1415 1414 1414 1413 1413 1412 1411 1410 1410 1409 1407 1406 1406 1405 1404 1404 1403 1403 1402
1400 1399 1398 1397 1396 1395 1394 1393 1392 1391 1390 1388 1387 1386 1385 1384 1383 1382 1381 1380 1379 1379 1378 1378 1377 1377 1377 1377 1377 1378 1378 1379 1381 1382 1384 1387 1389 1391 1392 1393 1393 1394 1396 1397 1398 1400 1401 1402 1403 1405 1406 1407 1408 1408 1409 1410 1410 1410 1410 1411 1411 1412 1412 1412 1412 1411 1411 1411 1411 1410 1409 1409 1408 1407 1407 1406 1404 1403 1403 1402 1401 1401 1400 1400 1399
1395 1394 1393 1392 1391 1390 1389 1388 1386 1385 1384 1383 1381 1380 1379 1378 1377 1377 1376 1375 1374 1373 1373 1372 1372 1372 1371 1371 1372 1372 1373 1374 1375 1377 1379 1381 1384 1385 1386 1388 1388 1390 1391 1392 1394 1395 1396 1397 1399 1400 1402 1403 1404 1404 1405 1406 1406 1407 1407 1407 1408 1408 1408 1408 1408 1408 1408 1407 1407 1407 1406 1405 1405 1405 1404 1403 1401 1400 1400 1399 1398 1398 1397 1396 1396